[[{"header":{"parameterUnit":"m.s-1","parameterCategory":1,"la1":30.2992,"la2":30.254,"lo1":-89.0895,"lo2":-89.0443,"dy":0.0025,"dx":0.0025,"nx":19,"ny":19,"refTime":"2026-04-25T09:00:00:Z","depth":0,"parameterNumber":2,"parameterNumberName":"U-component_of_WINDS"},"data":[0,0,0,0.1595,0.1595,0.1606,0.1606,0.1618,0.1619,0,0,0,0,0,0,0,0,0,0,0,0.1592,0.1592,0.1595,0.1595,0.1606,0.1606,0.1618,0.1619,0,0,0,0,0,0,0,0,0,0,0,0.1592,0.1592,0.1592,0.1595,0.1606,0.1606,0.1618,0.1611,0,0,0,0,0,0,0,0,0,0,0.16,0.1597,0.1592,0.1592,0.1596,0.1606,0.1606,0.161,0.1611,0.1613,0,0.1615,0,0.1617,0.1619,0.1619,0,0,0,0.1596,0.1596,0.16,0.1592,0.1596,0.1606,0.1601,0.1611,0.1612,0.1614,0.1615,0.1616,0.1617,0.1619,0.1619,0.1631,0.1631,0,0,0.1595,0.1593,0.1599,0.16,0.1599,0.1601,0.1602,0.1611,0.1612,0.1615,0.1616,0.1617,0.1619,0.162,0.163,0.1631,0,0,0,0.1593,0.1593,0.1596,0.16,0.1602,0.1601,0.1602,0.1612,0.1613,0.1616,0.1618,0.162,0.162,0.163,0.163,0.1631,0,0,0,0.1593,0.1592,0.1596,0.1595,0.1602,0.1607,0.1603,0.1613,0.1614,0.1618,0.162,0.162,0.163,0.163,0.1631,0.1632,0,0,0,0.1591,0.1592,0.1593,0.1595,0.1599,0.1607,0.1609,0.1613,0.1614,0.1619,0.162,0.163,0.163,0.1631,0.1632,0.1634,0,0,0,0.1589,0.1594,0.1593,0.16,0.1599,0.1608,0.1609,0.1615,0.1619,0.162,0.163,0.163,0.1631,0.1632,0.1634,0.1635,0.1636,0,0,0.1595,0.1595,0.1599,0.1598,0.1606,0.1606,0.1614,0.1619,0.1621,0.1627,0.1627,0.1631,0.1632,0.1634,0.164,0.1641,0,0,0,0.16,0.1603,0.1605,0.1609,0.1613,0.1617,0.1621,0.1623,0.1628,0.1624,0.1633,0.1633,0.1634,0.1635,0.1636,0.1636,0.1631,0.1631,0.1631,0.1606,0.1608,0.1614,0.1617,0.1621,0.1624,0.1627,0.163,0.1631,0.1633,0.1635,0.1639,0.1639,0.164,0.1641,0.1636,0.1636,0.1636,0.1636,0.1615,0.1618,0.1619,0.1625,0.1626,0.1631,0.1634,0.1635,0.1639,0.1638,0.1639,0.1637,0.164,0.1641,0.1636,0.1636,0.1636,0.1636,0.1636,0.1619,0.1621,0.1623,0.1628,0.1632,0.1634,0.1638,0.1639,0.164,0.1641,0.1643,0.1643,0.1643,0.1642,0.1642,0.1642,0.1642,0.1642,0.1642,0.1622,0.1624,0.1628,0.1632,0.1634,0.1637,0.164,0.1642,0.1644,0.1645,0.1645,0.1645,0.164,0.1639,0.1642,0.1642,0.1642,0.1642,0.1642,0.163,0.1628,0.1633,0.1635,0.1639,0.1642,0.1644,0.1647,0.1649,0.1651,0.165,0.1647,0.1647,0.1647,0.1646,0.165,0.165,0.165,0.165,0.1633,0.1633,0.1638,0.1641,0.1644,0.1645,0.165,0.1652,0.1654,0.1655,0.1654,0.1653,0.1652,0.1653,0.1652,0.1651,0.1657,0.1657,0.1657,0.1637,0.1638,0.1642,0.1643,0.1646,0.1649,0.1653,0.1656,0.1657,0.1658,0.1655,0.1655,0.1653,0.1652,0.1652,0.1652,0.165,0,0]},{"header":{"parameterUnit":"m.s-1","parameterCategory":1,"la1":30.2992,"la2":30.254,"lo1":-89.0895,"lo2":-89.0443,"dy":0.0025,"dx":0.0025,"nx":19,"ny":19,"refTime":"2026-04-25T09:00:00:Z","depth":0,"parameterNumber":3,"parameterNumberName":"V-component_of_WINDS"},"data":[0,0,0,3.4747,3.4749,3.4866,3.4867,3.5009,3.5011,0,0,0,0,0,0,0,0,0,0,0,3.4712,3.4713,3.4747,3.475,3.4866,3.4867,3.5009,3.5011,0,0,0,0,0,0,0,0,0,0,0,3.4711,3.4713,3.4714,3.475,3.4866,3.4867,3.5009,3.4922,0,0,0,0,0,0,0,0,0,0,3.481,3.4778,3.4712,3.4714,3.4751,3.4866,3.4867,3.4918,3.4928,3.4955,0,3.4982,0,3.4999,3.502,3.502,0,0,0,3.4749,3.477,3.4802,3.4714,3.4752,3.4866,3.4813,3.4923,3.4934,3.4967,3.4984,3.4989,3.5001,3.5021,3.5022,3.5185,3.5186,0,0,3.4743,3.4732,3.4795,3.4809,3.4794,3.481,3.4817,3.493,3.4946,3.4984,3.4992,3.5003,3.5022,3.5023,3.5184,3.5185,0,0,0,3.4725,3.4727,3.4757,3.4803,3.4825,3.4813,3.4822,3.4941,3.4952,3.4994,3.5005,3.5023,3.5024,3.5184,3.5185,3.5213,0,0,0,3.4721,3.4717,3.4754,3.4748,3.4823,3.4885,3.483,3.4944,3.4957,3.5004,3.5023,3.5026,3.5183,3.5184,3.5211,3.5228,0,0,0,3.4704,3.4715,3.4732,3.4748,3.4798,3.4884,3.4901,3.4947,3.4964,3.5021,3.5026,3.5182,3.5184,3.5209,3.5225,3.5268,0,0,0,3.4683,3.4755,3.4732,3.4817,3.4797,3.4902,3.49,3.4978,3.503,3.5023,3.5183,3.5185,3.5208,3.5222,3.5265,3.5302,3.5317,0,0,3.4768,3.4765,3.4816,3.4798,3.4905,3.4884,3.4994,3.5051,3.5065,3.5143,3.5147,3.5212,3.5225,3.5267,3.5403,3.5414,0,0,0,3.4839,3.4875,3.4905,3.4956,3.5002,3.5042,3.5084,3.5105,3.5172,3.5104,3.524,3.5247,3.5273,3.5291,3.5301,3.5322,3.5193,3.5193,3.5192,3.4943,3.4959,3.5042,3.5071,3.512,3.5162,3.5201,3.5235,3.5236,3.5267,3.5291,3.5372,3.5392,3.54,3.5422,3.5312,3.5312,3.5312,3.5312,3.5068,3.5121,3.512,3.5202,3.5216,3.5283,3.5324,3.5322,3.5384,3.5356,3.5379,3.5345,3.5412,3.5432,3.5314,3.5314,3.5314,3.5313,3.5313,3.5138,3.5166,3.5191,3.5264,3.5318,3.5344,3.5404,3.5414,3.5424,3.5447,3.5472,3.5471,3.5471,3.5458,3.5459,3.5459,3.5459,3.5459,3.5459,3.52,3.5228,3.5279,3.5333,3.5366,3.541,3.5451,3.5483,3.5519,3.5522,3.5522,3.5518,3.5416,3.539,3.5464,3.5463,3.5463,3.5462,3.5462,3.5321,3.5295,3.5374,3.5407,3.547,3.5522,3.5534,3.5597,3.5624,3.5653,3.5643,3.5567,3.5564,3.5556,3.5534,3.5641,3.5641,3.5641,3.5641,3.5379,3.5379,3.5461,3.5513,3.5564,3.5583,3.5668,3.5699,3.5727,3.5743,3.5729,3.5702,3.5693,3.5695,3.5684,3.5664,3.5801,3.5802,3.5802,3.5454,3.5459,3.5531,3.556,3.561,3.5651,3.573,3.5786,3.5812,3.5808,3.5756,3.575,3.5705,3.569,3.5685,3.5668,3.5631,0,0]}]]